User: anonymous   Login
Location: Prairie State College
(41.5244°N, 87.6382°W)
Time: 05:39:45
(UTC-05:00)
Language:

ARGOS Delta rocket - Orbit

View from above orbital plane
View from above orbital plane
View from above satellite
View from above satellite

Ground track
Ground track

The orbit data is extracted from the following two-line orbital elements,

1 25637U 99008D   15214.76057209  .00000124  00000-0  38893-4 0  9990
2 25637 096.4682 265.1499 0141520 298.8121 171.4248 14.46305654866678
Epoch (UTC): 02 August 2015 18:15:13
Eccentricity: 0.0141520
inclination: 96.4682°
perigee height: 637 km
apogee height: 838 km
right ascension of ascending node: 265.1499°
argument of perigee: 298.8121°
revolutions per day: 14.46305654
mean anomaly at epoch: 171.4248°
orbit number at epoch: 86667

The dashed part of the orbit path shows where the satellite is in the earth's shadow,  

DLR